Weather reports worldwide

Advertisment
Cervia, Italy (16148): temperature & dewpoint: 11.07.2019 07:00:00 - 17.07.2019 07:00:00 (CEST)Cervia, Italy (16148): wind speed: 11.07.2019 07:00:00 - 17.07.2019 07:00:00 (CEST)Cervia, Italy (16148): wind direction: 11.07.2019 07:00:00 - 17.07.2019 07:00:00 (CEST)Cervia, Italy (16148): reduced air pressure: 11.07.2019 07:00:00 - 17.07.2019 07:00:00 (CEST)Cervia, Italy (16148): visibility: 11.07.2019 07:00:00 - 17.07.2019 07:00:00 (CEST)Cervia, Italy (16148): sunshine duration: 11.07.2019 07:00:00 - 17.07.2019 07:00:00 (CEST)
Date & Time tt [°C] td [°C] ff [km/h] ff [kn] dd ppp [hPa] vv [km] sd [min]
17.07.2019 07:00:00 17,0 14,0 5 3 WSW - 10 -
17.07.2019 06:00:00 15,0 13,0 5 3 WSW - 10 -
17.07.2019 05:00:00 15,2 12,9 5 3 WSW 1013,6 20 -
17.07.2019 04:00:00 15,0 14,0 5 3 SW - 10 -
17.07.2019 03:00:00 17,0 14,0 5 3 SSW - 10 -
17.07.2019 02:00:00 17,0 13,7 4 2 SW 1014,2 20 -
17.07.2019 01:00:00 18,0 14,0 13 7 SW - 10 -
17.07.2019 00:00:00 18,0 15,0 13 7 SW - 10 -
16.07.2019 23:00:00 18,0 14,5 13 7 SW 1013,6 20 -
16.07.2019 22:00:00 21,0 12,0 8 4 S - 10 -
16.07.2019 21:00:00 24,0 11,0 2 1 S - 10 -
16.07.2019 20:00:00 26,0 9,8 4 2 N 1013,0 30 60
16.07.2019 19:00:00 27,0 9,0 5 3 N - 10 -
16.07.2019 18:00:00 27,0 10,0 5 3 NW - 10 -
16.07.2019 17:00:00 27,0 9,4 9 5 ENE 1013,1 25 60
16.07.2019 16:00:00 27,0 11,0 8 4 N - 10 -
16.07.2019 15:00:00 26,0 12,0 13 7 ENE - 10 -
16.07.2019 14:00:00 26,2 13,0 15 8 NE 1013,6 25 60
16.07.2019 13:00:00 26,0 13,0 11 6 NE - 10 -
16.07.2019 12:00:00 26,0 13,0 15 8 ENE - 10 -
16.07.2019 11:00:00 23,8 16,1 8 4 NNW 1013,3 20 60
16.07.2019 10:00:00 22,0 19,0 11 6 WNW - 10 -
16.07.2019 09:00:00 20,0 18,0 15 8 WNW - 10 -
16.07.2019 08:00:00 18,0 16,3 16 9 WNW 1012,8 10 60
16.07.2019 07:00:00 17,0 16,0 16 9 WNW - 10 -
16.07.2019 06:00:00 17,0 16,0 13 7 WNW - 10 -
16.07.2019 05:00:00 17,0 15,7 15 8 WNW 1012,0 10 -
16.07.2019 04:00:00 17,0 16,0 16 9 W - 10 -
16.07.2019 03:00:00 18,0 16,0 11 6 W - 10 -
16.07.2019 02:00:00 18,0 16,7 13 7 W 1012,4 10 -
16.07.2019 01:00:00 18,0 17,0 8 4 WNW - 10 -
16.07.2019 00:00:00 18,0 17,0 11 6 W - 10 -
15.07.2019 23:00:00 18,0 16,9 13 7 W 1011,9 10 -
15.07.2019 22:00:00 19,0 17,0 11 6 W - 10 -
15.07.2019 21:00:00 19,0 18,0 9 5 W - 10 -
15.07.2019 20:00:00 19,4 18,6 8 4 WNW 1011,2 10 0
15.07.2019 19:00:00 20,0 19,0 9 5 NW - 10 -
15.07.2019 18:00:00 20,0 19,0 8 4 W - 10 -
15.07.2019 17:00:00 20,0 19,2 5 3 NW 1011,1 10 0
15.07.2019 16:00:00 19,0 18,0 5 3 WSW - 10 -
15.07.2019 15:00:00 19,0 18,0 9 5 NE - 10 -
15.07.2019 14:00:00 17,8 16,5 13 7 E 1010,5 7 0
15.07.2019 13:00:00 18,0 18,0 24 13 ENE - 5 -
15.07.2019 12:00:00 18,0 18,0 11 6 NNE - 10 -
15.07.2019 11:00:00 21,8 18,8 9 5 NE 1010,0 10 0
15.07.2019 10:00:00 21,0 18,0 11 6 W - 10 -
15.07.2019 09:00:00 21,0 18,0 13 7 WSW - 10 -
15.07.2019 08:00:00 20,2 17,2 8 4 W 1008,7 20 0
15.07.2019 07:00:00 20,0 17,0 5 3 W - 10 -
15.07.2019 06:00:00 19,0 16,0 4 2 WSW - 10 -
15.07.2019 05:00:00 21,4 15,3 5 3 SSE 1009,3 15 -
15.07.2019 04:00:00 22,0 16,0 5 3 SE - 10 -
15.07.2019 03:00:00 22,0 15,0 5 3 SE - 10 -
15.07.2019 02:00:00 22,3 15,2 11 6 ESE 1010,1 20 -
15.07.2019 01:00:00 22,0 15,0 9 5 ESE - 10 -
15.07.2019 00:00:00 22,0 14,0 9 5 SE - 10 -
14.07.2019 23:00:00 23,2 14,5 11 6 ESE 1010,1 20 -
14.07.2019 22:00:00 24,0 15,0 13 7 SE - 10 -
14.07.2019 21:00:00 25,0 15,0 15 8 ESE - 10 -
14.07.2019 20:00:00 25,0 15,1 16 9 ESE 1009,8 20 0
14.07.2019 19:00:00 26,0 15,0 18 10 ESE - 10 -
14.07.2019 18:00:00 26,0 15,0 22 12 ESE - 10 -
14.07.2019 17:00:00 27,0 15,1 24 13 E 1010,6 20 60
14.07.2019 16:00:00 27,0 17,0 28 15 E - 10 -
14.07.2019 15:00:00 28,0 16,0 26 14 E - 10 -
14.07.2019 14:00:00 27,4 18,1 22 12 E 1011,7 20 60
14.07.2019 13:00:00 27,0 20,0 18 10 E - 10 -
14.07.2019 12:00:00 26,0 20,0 13 7 E - 10 -
14.07.2019 11:00:00 25,0 18,7 9 5 E 1012,3 20 60
14.07.2019 10:00:00 24,0 19,0 5 3 E - 10 -
14.07.2019 09:00:00 22,0 19,0 4 2 N - 10 -
14.07.2019 08:00:00 19,8 17,8 4 2 N 1012,0 16 60
14.07.2019 07:00:00 18,0 17,0 4 2 WNW - 10 -
14.07.2019 06:00:00 17,0 16,0 9 5 SW - 10 -
14.07.2019 05:00:00 17,2 16,4 8 4 SW 1012,0 16 -
14.07.2019 04:00:00 18,0 17,0 9 5 SW - 10 -
14.07.2019 03:00:00 18,0 15,0 8 4 W - 10 -
14.07.2019 02:00:00 18,6 18,0 8 4 WNW 1012,4 16 -
14.07.2019 01:00:00 20,0 19,0 4 2 SW - 10 -
14.07.2019 00:00:00 20,0 19,0 9 5 SSW - 10 -
13.07.2019 23:00:00 22,4 19,8 8 4 N 1012,6 16 -
13.07.2019 22:00:00 22,0 19,0 8 4 ESE - 10 -
13.07.2019 21:00:00 23,0 18,0 11 6 E - 10 -
13.07.2019 20:00:00 24,5 17,7 8 4 ESE 1010,0 20 60
13.07.2019 19:00:00 25,0 17,0 11 6 E - 10 -
13.07.2019 18:00:00 26,0 18,0 13 7 E - 10 -
13.07.2019 17:00:00 26,2 17,8 16 9 E 1009,9 15 60
13.07.2019 16:00:00 26,0 18,0 16 9 NE - 10 -
13.07.2019 15:00:00 27,0 18,0 18 10 NE - 10 -
13.07.2019 14:00:00 26,9 16,8 18 10 NNE 1010,5 10 60
13.07.2019 13:00:00 26,0 16,0 5 3 NW - 10 -
13.07.2019 12:00:00 25,0 19,0 5 3 N - 10 -
13.07.2019 11:00:00 23,7 19,4 4 2 S 1010,1 10 42
13.07.2019 10:00:00 23,0 20,0 11 6 S - 10 -
13.07.2019 09:00:00 22,0 20,0 21 11 E - 10 -
13.07.2019 08:00:00 19,2 18,2 34 18 NNE 1009,7 12 0
13.07.2019 07:00:00 19,0 18,0 9 5 W - 10 -
13.07.2019 06:00:00 19,0 18,0 8 4 WSW - 10 -
13.07.2019 05:00:00 19,0 18,4 9 5 SW 1008,1 20 -
13.07.2019 04:00:00 19,0 18,0 4 2 ESE - 10 -
13.07.2019 03:00:00 20,0 19,0 4 2 SE - 10 -
13.07.2019 02:00:00 20,2 18,9 5 3 ESE 1010,0 30 -
13.07.2019 01:00:00 21,0 19,0 4 2 S - 10 -
13.07.2019 00:00:00 22,0 20,0 5 3 ESE - 10 -
12.07.2019 23:00:00 22,2 20,1 4 2 SE 1010,3 30 -
12.07.2019 22:00:00 23,0 20,0 9 5 SE - 10 -
12.07.2019 21:00:00 23,0 19,0 11 6 E - 10 -
12.07.2019 20:00:00 25,2 18,2 15 8 ESE 1010,5 16 60
12.07.2019 19:00:00 26,0 18,0 16 9 ESE - 10 -
12.07.2019 18:00:00 27,0 18,0 18 10 ESE - 10 -
12.07.2019 17:00:00 26,6 17,4 18 10 ESE 1010,8 16 60
12.07.2019 16:00:00 27,0 17,0 16 9 E - 10 -
12.07.2019 15:00:00 27,0 18,0 15 8 E - 10 -
12.07.2019 14:00:00 26,8 18,7 13 7 ENE 1012,2 16 60
12.07.2019 13:00:00 27,0 19,0 13 7 ENE - 10 -
12.07.2019 12:00:00 26,0 19,0 9 5 E - 10 -
12.07.2019 11:00:00 25,0 18,4 11 6 E 1013,0 16 54
12.07.2019 10:00:00 24,0 19,0 5 3 - - 10 -
12.07.2019 09:00:00 22,0 19,0 4 2 - - 10 -
12.07.2019 08:00:00 20,0 19,0 5 3 WSW 1012,8 20 60
12.07.2019 07:00:00 19,0 18,0 2 1 SSE - 10 -
12.07.2019 06:00:00 19,0 17,0 9 5 SE - 10 -
12.07.2019 05:00:00 19,0 17,5 9 5 SE 1012,6 20 -
12.07.2019 04:00:00 20,0 18,0 9 5 E - 10 -
12.07.2019 03:00:00 20,0 18,0 8 4 SE - 10 -
12.07.2019 02:00:00 20,0 18,1 9 5 ESE 1013,0 15 -
12.07.2019 01:00:00 20,0 18,0 18 10 E - 10 -
12.07.2019 00:00:00 22,0 16,0 8 4 SE - 10 -
11.07.2019 23:00:00 22,8 16,4 9 5 SE 1012,2 20 -
11.07.2019 22:00:00 24,0 16,0 9 5 ESE - 10 -
11.07.2019 21:00:00 23,0 15,0 9 5 E - 10 -
11.07.2019 20:00:00 24,0 14,4 9 5 E 1012,0 25 0
11.07.2019 19:00:00 25,0 14,0 15 8 ESE - 10 -
11.07.2019 18:00:00 25,0 12,0 15 8 E - 10 -
11.07.2019 17:00:00 26,2 12,3 16 9 E 1012,3 30 60
11.07.2019 16:00:00 26,0 13,0 15 8 E - 10 -
11.07.2019 15:00:00 26,0 12,0 13 7 ENE - 10 -
11.07.2019 14:00:00 25,8 13,0 13 7 ENE 1013,8 25 30
11.07.2019 13:00:00 25,0 12,0 11 6 NE - 10 -
11.07.2019 12:00:00 25,0 14,0 8 4 NE - 10 -
11.07.2019 11:00:00 25,0 14,2 9 5 ENE 1014,9 20 60
11.07.2019 10:00:00 23,0 15,0 5 3 ESE - 10 -
11.07.2019 09:00:00 22,0 17,0 4 2 S - 10 -
11.07.2019 08:00:00 18,0 16,3 5 3 SW 1014,4 20 60
11.07.2019 07:00:00 17,0 16,0 5 3 SW - 10 -

tt = temperature
td = dewpoint
ff = wind speed
dd = wind direction
ppp = reduced air pressure
vv = visibility
sd = sunshine duration

Next stations